Hurricane Symbol View the latest observations near East Pacific Tropical Storm Bud.

Station PRDA2 - 9497645 - Prudhoe Bay, AK Image indicating link to RSS feed of recent meteorological observations for station PRDA2


Conditions at PRDA2 as of
(5:00 pm AKDT on 07/24/2024)
0100 GMT on 07/25/2024:
     

Click on the graph icon in the table below to see a time series plot of the last five days of that observation.

5-day plot - Wind Direction Wind Direction (WDIR): NW ( 320 deg true )
5-day plot - Wind Speed Wind Speed (WSPD): 15.0 kts
5-day plot - Wind Gust Wind Gust (GST): 17.1 kts
5-day plot - Atmospheric Pressure Atmospheric Pressure (PRES):29.90 in
5-day plot - Pressure Tendency Pressure Tendency (PTDY):-0.01 in ( Falling )
5-day plot - Air Temperature Air Temperature (ATMP): 59.7 °F
5-day plot - Water Temperature Water Temperature (WTMP): 45.0 °F
5-day plot - Wind Speed at 10 Meters Wind Speed at 10 meters (WSPD10M): 15.5 kts
5-day plot - Wind Speed at 20 Meters Wind Speed at 20 meters (WSPD20M): 15.5 kts
5-day plot -  Wind Speed, Wind Gust and Atmospheric Pressure Combined plot of Wind Speed, Gust, and Air Pressure
NOS Water Level Observation Network Water Level
Previous observations
TIME
(AKDT)
5-day plot - Wind Direction
WDIR
 
5-day plot - Wind Speed
WSPD
kts
5-day plot - Wind Gust
GST
kts
5-day plot - Wave Height
WVHT
ft
5-day plot - Dominant Wave Period
DPD
sec
5-day plot - Average Wave Period
APD
sec
5-day plot - Mean Wave Direction
MWD
 
5-day plot - Atmospheric Pressure
PRES
in
5-day plot - Pressure Tendency
PTDY
in
5-day plot - Air Temperature
ATMP
°F
5-day plot - Water Temperature
WTMP
°F
5-day plot - Dew Point
DEWP
°F
5-day plot - Salinity
SAL
psu
5-day plot - Visibility
VIS
nmi
5-day plot - Tide (above MLLW)
TIDE
ft
2024-07-24 04:54 pm NW 15.9 15.9----29.90- 61.0 45.0----
2024-07-24 04:48 pm NW 15.0 15.9----29.90- 59.4 45.0----
2024-07-24 04:42 pm NW 14.0 15.0----29.90- 57.0 45.1----
2024-07-24 04:36 pm NW 14.0 15.0----29.90- 57.6 45.1----
2024-07-24 04:30 pm NW 12.0 13.0----29.90- 56.7 45.1----
2024-07-24 04:24 pm NW 11.1 14.0----29.90- 56.1 45.3----
2024-07-24 04:18 pm NW 12.0 14.0----29.90- 59.0 45.7----
2024-07-24 04:12 pm NW 14.0 14.0----29.90- 60.6 45.7----
2024-07-24 04:06 pm NW 13.0 15.0----29.90- 60.3 46.0----
2024-07-24 04:00 pm NW 13.0 14.0----29.90-0.02 59.9 46.2----
2024-07-24 03:54 pm NW 13.0 15.0----29.90- 59.7 46.6----
2024-07-24 03:48 pm NW 13.0 14.0----29.90- 60.6 46.8----
2024-07-24 03:42 pm NW 12.0 13.0----29.90- 59.5 47.3----
2024-07-24 03:36 pm NW 12.0 13.0----29.90- 59.5 47.7----
2024-07-24 03:30 pm NW 13.0 14.0----29.90- 59.5 48.0----
2024-07-24 03:24 pm NW 13.0 14.0----29.91- 61.0 47.8----
2024-07-24 03:18 pm NW 13.0 14.0----29.91- 60.8 48.0----
2024-07-24 03:12 pm NW 13.0 14.0----29.91- 60.4 48.6----
2024-07-24 03:06 pm NW 14.0 15.0----29.91- 60.4 48.0----
2024-07-24 03:00 pmWNW 14.0 15.0----29.91+0.00 61.3 47.7----
2024-07-24 02:54 pm NW 14.0 15.0----29.91- 59.7 47.3----
2024-07-24 02:48 pm NW 15.0 15.9----29.91-- 46.8----
2024-07-24 02:42 pm NW 15.0 15.9----29.91-- 45.9----
2024-07-24 02:36 pm NW 15.0 15.9----29.90-- 45.5----
2024-07-24 02:30 pm NW 15.0 15.0----29.91- 60.4 45.3----
2024-07-24 02:24 pm NW 13.0 15.0----29.91- 60.8 45.5----
2024-07-24 02:18 pm NW 14.0 15.0----29.91- 60.8 45.5----
2024-07-24 02:12 pmWNW 15.0 15.9----29.91- 61.3 45.5----
2024-07-24 02:06 pmWNW 15.9 17.1----29.91- 61.9 45.5----
2024-07-24 02:00 pmWNW 15.9 17.1----29.91+0.00 62.2 45.5----
2024-07-24 01:54 pmWNW 15.0 17.1----29.91- 60.8 45.5----
2024-07-24 01:48 pm NW 15.9 17.1----29.91- 60.8 45.5----
2024-07-24 01:42 pmWNW 17.1 19.0----29.91- 61.7 45.3----
2024-07-24 01:36 pmWNW 18.1 19.0----29.91- 61.3 45.5----
2024-07-24 01:30 pmWNW 18.1 19.0----29.91- 61.2 45.7----
2024-07-24 01:24 pmWNW 18.1 19.0----29.91- 60.4 45.9----
2024-07-24 01:18 pm NW 15.9 17.1----29.91- 57.6 45.9----
2024-07-24 01:12 pmWNW 17.1 19.0----29.91- 57.9 46.0----
2024-07-24 01:06 pmWNW 19.0 20.0----29.91- 58.3 46.4----
2024-07-24 01:00 pm NW 18.1 19.0----29.92+0.00 57.0 46.4----
2024-07-24 12:54 pmWNW 18.1 21.0----29.92- 57.2 46.6----
2024-07-24 12:48 pmWNW 20.0 21.0----29.91-- 46.6----
2024-07-24 12:42 pmWNW 17.1 18.1----29.92-- 46.8----
2024-07-24 12:36 pmWNW 17.1 19.0----29.92-- 46.6----
2024-07-24 12:30 pmWNW 17.1 22.0----29.92- 57.9 46.6----
2024-07-24 12:24 pm W 22.0 22.9----29.91- 64.8 46.8----
2024-07-24 12:18 pm W 21.0 25.1----29.91- 64.0 46.9----
2024-07-24 12:12 pm W 22.9 26.0----29.91- 64.2 46.8----
2024-07-24 12:06 pm W 22.0 27.0----29.91- 63.9 46.6----
2024-07-24 12:00 pm W 24.1 27.0----29.91-0.01 64.9 46.6----
2024-07-24 11:54 am W 22.9 27.0----29.91- 64.4 46.6----
2024-07-24 11:48 am W 24.1 29.9----29.91- 65.7 46.4----
2024-07-24 11:42 am W 24.1 28.0----29.91- 64.8 46.2----
2024-07-24 11:36 am W 22.0 25.1----29.91- 63.9 46.0----
2024-07-24 11:30 am W 21.0 27.0----29.91- 63.7 45.9----
2024-07-24 11:24 am W 22.0 26.0----29.91- 64.6 45.9----
2024-07-24 11:18 am W 21.0 25.1----29.91- 64.0 45.7----
2024-07-24 11:12 am W 21.0 28.0----29.91- 63.9 45.5----
2024-07-24 11:06 am W 24.1 27.0----29.91- 64.8 45.3----
2024-07-24 11:00 am W 22.0 25.1----29.91-0.01 64.6 45.3----
2024-07-24 10:54 am W 24.1 28.0----29.91- 64.4 45.1----
2024-07-24 10:48 am W 22.0 25.1----29.91- 64.2 45.3----
2024-07-24 10:42 amWSW 24.1 27.0----29.91- 63.9 45.1----
2024-07-24 10:36 am W 21.0 26.0----29.91- 63.7 44.8----
2024-07-24 10:30 am W 21.0 25.1----29.91- 63.7 44.8----
2024-07-24 10:24 amWSW 22.0 25.1----29.91- 63.7 44.8----
2024-07-24 10:18 am W 22.9 26.0----29.91- 63.5 45.0----
2024-07-24 10:12 am W 21.0 24.1----29.91- 63.7 44.8----
2024-07-24 10:06 amWSW 21.0 24.1----29.91- 63.3 44.8----
2024-07-24 10:00 amWSW 18.1 21.0----29.91-0.01 63.7 44.8----
2024-07-24 09:54 am W 19.0 22.9----29.92- 63.0 44.6----
2024-07-24 09:48 am W 17.1 19.0----29.92- 63.3 44.8----
2024-07-24 09:42 am W 15.9 19.0----29.92- 62.4 44.6----
2024-07-24 09:36 am W 15.0 17.1----29.92- 62.6 44.6----
2024-07-24 09:30 am W 15.9 18.1----29.92- 63.1 44.6----
2024-07-24 09:24 am W 15.9 18.1----29.92- 63.1 44.8----
2024-07-24 09:18 am W 17.1 19.0----29.92- 63.3 44.8----
2024-07-24 09:12 am W 17.1 19.0----29.92- 63.1 44.8----
2024-07-24 09:06 am W 17.1 19.0----29.92- 62.4 44.8----
2024-07-24 09:00 am W 17.1 18.1----29.92-0.01 63.0 44.6----
2024-07-24 08:54 am W 18.1 19.0----29.92- 62.6 44.6----
2024-07-24 08:48 am W 17.1 18.1----29.92-- 44.6----
2024-07-24 08:42 am W 17.1 19.0----29.92-- 45.0----
2024-07-24 08:36 am W 18.1 20.0----29.92-- 45.0----
2024-07-24 08:30 am W 19.0 20.0----29.92- 62.2 45.0----
2024-07-24 08:24 am W 19.0 20.0----29.92- 62.1 44.8----
2024-07-24 08:18 am W 18.1 19.0----29.92- 61.7 44.8----
2024-07-24 08:12 am W 18.1 19.0----29.92- 61.9 44.6----
2024-07-24 08:06 am W 17.1 18.1----29.92- 61.9 44.4----
2024-07-24 08:00 am W 17.1 18.1----29.92-0.01 61.9 44.4----
2024-07-24 07:54 am W 17.1 19.0----29.92- 61.9 44.6----
2024-07-24 07:48 am W 17.1 19.0----29.92-- 44.1----
2024-07-24 07:42 amWSW 17.1 17.1----29.92-- 43.3----
2024-07-24 07:36 amWSW 15.9 17.1----29.92-- 43.3----
2024-07-24 07:30 amWSW 15.9 19.0----29.92- 60.8 43.0----
2024-07-24 07:24 amWSW 15.9 17.1----29.92- 60.4 43.0----
2024-07-24 07:18 amWSW 15.9 18.1----29.92- 59.9 42.8----
2024-07-24 07:12 amWSW 15.9 18.1----29.92- 59.7 43.0----
2024-07-24 07:06 amWSW 15.9 17.1----29.92- 59.0 42.1----
2024-07-24 07:00 amWSW 15.9 17.1----29.92-0.01 58.8 42.1----
2024-07-24 06:54 amWSW 15.9 17.1----29.92- 58.5 42.8----
2024-07-24 06:48 amWSW 15.9 17.1----29.92- 58.3 43.2----
2024-07-24 06:42 amWSW 15.9 17.1----29.92- 58.3 42.3----
2024-07-24 06:36 amWSW 15.9 17.1----29.93- 57.7 42.6----
2024-07-24 06:30 amWSW 15.9 18.1----29.93- 57.6 42.3----
2024-07-24 06:24 amWSW 15.9 17.1----29.93- 57.4 41.4----
2024-07-24 06:18 amWSW 15.9 18.1----29.93- 57.2 41.2----
2024-07-24 06:12 amWSW 17.1 18.1----29.93- 57.0 42.4----
2024-07-24 06:06 amWSW 18.1 19.0----29.93- 57.2 42.4----
2024-07-24 06:00 amWSW 17.1 19.0----29.93-0.01 57.2 42.8----
2024-07-24 05:54 amWSW 18.1 20.0----29.93- 57.2 42.8----
2024-07-24 05:48 amWSW 19.0 20.0----29.93-- 42.8----
2024-07-24 05:42 amWSW 18.1 20.0----29.93-- 42.8----
2024-07-24 05:36 am SW 18.1 20.0----29.93-- 42.6----
2024-07-24 05:30 am SW 19.0 20.0----29.93- 56.8 42.6----
2024-07-24 05:24 am SW 19.0 21.0----29.93- 56.8 42.6----
2024-07-24 05:18 am SW 18.1 20.0----29.93- 57.4 41.5----
2024-07-24 05:12 am SW 19.0 21.0----29.93- 57.9 40.5----
2024-07-24 05:06 am SW 19.0 21.0----29.93- 58.1 39.4----
2024-07-24 05:00 am SW 18.1 20.0----29.93-0.02 57.7 38.3----
2024-07-24 04:54 am SW 15.0 17.1----29.93- 57.6 36.9----
2024-07-24 04:48 am SW 17.1 19.0----29.93- 57.6 36.7----
2024-07-24 04:42 am SW 17.1 18.1----29.93- 57.9 36.7----
2024-07-24 04:36 am SW 14.0 15.0----29.93- 57.7 36.7----
2024-07-24 04:30 am SW 15.0 17.1----29.94- 57.9 36.7----
2024-07-24 04:24 am SW 17.1 19.0----29.93- 57.9 36.5----
2024-07-24 04:18 am SW 18.1 20.0----29.93- 58.1 36.5----
2024-07-24 04:12 am SW 19.0 20.0----29.93- 58.3 36.5----
2024-07-24 04:06 am SW 18.1 20.0----29.94- 58.3 36.5----
2024-07-24 04:00 am SW 15.9 18.1----29.94-0.03 58.1 36.5----
2024-07-24 03:54 am SW 17.1 18.1----29.94- 58.1 36.5----
2024-07-24 03:48 am SW 17.1 18.1----29.94- 58.1 36.5----
2024-07-24 03:42 am SW 17.1 17.1----29.94- 58.5 36.7----
2024-07-24 03:36 am SW 15.0 15.9----29.94- 58.5 36.7----
2024-07-24 03:30 am SW 15.0 17.1----29.94- 58.6 36.7----
2024-07-24 03:24 am SW 15.9 17.1----29.94- 58.8 36.9----
2024-07-24 03:18 amSSW 15.0 15.9----29.94- 58.8 36.9----
2024-07-24 03:12 am SW 14.0 15.0----29.94- 58.6 36.9----
2024-07-24 03:06 amSSW 15.0 15.0----29.94- 59.0 36.9----
2024-07-24 03:00 amSSW 14.0 15.0----29.94-0.04 58.8 37.0----
2024-07-24 02:54 amSSW 13.0 14.0----29.94- 59.0 37.0----
2024-07-24 02:48 amSSW 12.0 13.0----29.95- 59.4 37.0----
2024-07-24 02:42 amSSW 12.0 14.0----29.95- 60.1 37.0----
2024-07-24 02:36 am S 8.9 12.0----29.95- 60.6 37.0----
2024-07-24 02:30 am S 9.9 12.0----29.95- 60.4 37.0----
2024-07-24 02:24 am S 8.9 11.1----29.95- 59.7 37.0----
2024-07-24 02:18 am S 11.1 12.0----29.95- 59.7 37.2----
2024-07-24 02:12 am S 11.1 12.0----29.95- 59.4 37.2----
2024-07-24 02:06 am S 8.9 9.9----29.96- 59.0 37.2----
2024-07-24 02:00 am S 11.1 13.0----29.96-0.03 59.2 37.4----
2024-07-24 01:54 am S 12.0 14.0----29.96- 58.8 37.6----
2024-07-24 01:48 am S 13.0 13.0----29.96- 59.0 37.6----
2024-07-24 01:42 am S 11.1 12.0----29.96- 58.6 37.8----
2024-07-24 01:36 am S 11.1 12.0----29.96- 59.5 37.8----
2024-07-24 01:30 am S 8.9 9.9----29.96- 58.6 37.8----
2024-07-24 01:24 am S 8.9 11.1----29.97- 58.3 37.9----
2024-07-24 01:18 am S 11.1 13.0----29.97- 59.4 37.9----
2024-07-24 01:12 am S 12.0 13.0----29.97- 59.7 38.1----
2024-07-24 01:06 am S 8.9 11.1----29.97- 59.0 38.5----
2024-07-24 01:00 am S 9.9 13.0----29.97-0.04 58.8 38.5----
2024-07-24 12:54 am S 11.1 13.0----29.97- 59.2 38.3----
2024-07-24 12:48 am S 11.1 12.0----29.98- 58.6 38.5----
2024-07-24 12:42 am S 11.1 12.0----29.98- 58.8 38.3----
2024-07-24 12:36 am S 8.9 9.9----29.98- 58.1 38.5----
2024-07-24 12:30 am S 8.9 9.9----29.98- 58.5 38.7----
2024-07-24 12:24 am S 8.0 9.9----29.98- 57.0 39.2----
2024-07-24 12:18 am S 8.0 11.1----29.98- 57.2 38.8----
2024-07-24 12:12 am S 9.9 11.1----29.98- 55.2 38.8----
2024-07-24 12:06 am S 8.9 11.1----29.98- 55.2 38.8----
2024-07-24 12:00 amSSE 9.9 11.1----29.98-0.03 55.4 38.7----
2024-07-23 11:54 pmSSE 8.9 9.9----29.98- 54.5 38.5----
2024-07-23 11:48 pmSSE 9.9 9.9----29.98- 54.0 38.8----
2024-07-23 11:42 pmSSE 8.9 9.9----29.99- 53.6 39.4----
2024-07-23 11:36 pmSSE 9.9 9.9----29.99- 53.6 39.7----
2024-07-23 11:30 pmSSE 9.9 11.1----29.99- 54.0 40.6----
2024-07-23 11:24 pmSSE 9.9 9.9----29.99- 53.6 40.8----
2024-07-23 11:18 pmSSE 9.9 9.9----29.98- 52.9 41.2----
2024-07-23 11:12 pmSSE 8.9 8.9----29.99- 52.2 41.4----
2024-07-23 11:06 pmSSE 8.9 8.9----29.99- 52.0 41.2----
2024-07-23 11:00 pmSSE 8.0 9.9----29.99-0.04 50.4 41.4----
2024-07-23 10:54 pmSSE 8.9 8.9----29.99- 50.2 41.7----
2024-07-23 10:48 pmSSE 8.0 8.9----29.99- 49.5 41.5----
2024-07-23 10:42 pmSSE 7.0 8.0----29.99- 50.4 41.5----
2024-07-23 10:36 pmSSE 6.0 7.0----29.99- 48.6 41.7----
2024-07-23 10:30 pm SE 6.0 6.0----30.00- 48.4 41.7----
2024-07-23 10:24 pm SE 5.1 5.1----30.00- 48.4 42.1----
2024-07-23 10:18 pm SE 4.1 5.1----30.00- 48.7 42.1----
2024-07-23 10:12 pm SE 4.1 4.1----30.00- 48.9 42.1----
2024-07-23 10:06 pm SE 4.1 5.1----30.00- 48.6 41.5----
2024-07-23 10:00 pm SE 4.1 5.1----30.01-0.03 48.2 38.5----
2024-07-23 09:54 pm SE 4.1 4.1----30.01- 47.8 36.3----
2024-07-23 09:48 pm SE 4.1 4.1----30.01- 48.7 36.0----
2024-07-23 09:42 pmESE 4.1 4.1----30.01- 50.0 36.0----
2024-07-23 09:36 pm SE 4.1 4.1----30.01- 48.4 36.0----
2024-07-23 09:30 pmESE 4.1 4.1----30.01- 49.6 36.0----
2024-07-23 09:24 pm SE 4.1 5.1----30.01- 47.7 36.0----
2024-07-23 09:18 pmESE 4.1 4.1----30.01- 46.6 36.0----
2024-07-23 09:12 pmESE 4.1 4.1----30.01- 46.4 36.0----
2024-07-23 09:06 pmESE 2.9 4.1----30.02- 46.2 35.8----
2024-07-23 09:00 pmESE 2.9 4.1----30.02-0.03 46.0 35.8----
2024-07-23 08:54 pm E 2.9 4.1----30.02- 45.7 36.0----
2024-07-23 08:48 pmESE 4.1 5.1----30.02- 45.5 35.8----
2024-07-23 08:42 pm E 5.1 6.0----30.02- 45.1 36.0----
2024-07-23 08:36 pm E 6.0 7.0----30.02- 45.0 36.0----
2024-07-23 08:30 pmESE 5.1 7.0----30.02- 44.8 36.0----
2024-07-23 08:24 pm E 6.0 7.0----30.02- 44.8 36.0----
2024-07-23 08:18 pmESE 6.0 7.0----30.02- 44.6 35.8----
2024-07-23 08:12 pm E 7.0 8.9----30.02- 44.6 36.0----
2024-07-23 08:06 pm E 7.0 8.9----30.02- 44.6 36.0----
2024-07-23 08:00 pm-------30.02-0.05 44.4 36.0----
2024-07-23 07:54 pm-------30.02- 44.2 36.0----
2024-07-23 07:48 pm E 8.0 8.9----30.03- 44.1 35.8----
2024-07-23 07:42 pm E 8.0 8.9----30.03- 44.2 35.8----
2024-07-23 07:36 pm E 8.0 8.9----30.03- 44.1 35.8----
2024-07-23 07:30 pm E 8.0 9.9----30.03- 44.1 35.8----
2024-07-23 07:24 pm E 8.0 9.9----30.03- 44.1 35.8----
2024-07-23 07:18 pm E 8.0 9.9----30.03- 43.9 36.0----
2024-07-23 07:12 pm E 8.9 9.9----30.03- 43.5 36.0----
2024-07-23 07:06 pm E 8.9 9.9----30.03- 43.3 36.0----
2024-07-23 07:00 pm E 8.9 9.9----30.03-0.05 43.3 36.0----
2024-07-23 06:54 pm E 8.0 11.1----30.04- 43.5 36.0----
2024-07-23 06:48 pm E 8.0 9.9----30.04- 43.2 36.0----
2024-07-23 06:42 pm E 8.9 9.9----30.04- 43.0 36.3----
2024-07-23 06:36 pm E 8.9 9.9----30.04- 43.3 36.3----
2024-07-23 06:30 pm E 8.9 11.1----30.04- 43.0 36.3----
2024-07-23 06:24 pm E 9.9 12.0----30.05- 42.8 36.3----
2024-07-23 06:18 pm E 8.9 11.1----30.04- 42.8 36.3----
2024-07-23 06:12 pm E 8.9 11.1----30.05- 42.6 36.3----
2024-07-23 06:06 pm E 9.9 11.1----30.05- 42.4 36.1----
2024-07-23 06:00 pm E 9.9 12.0----30.05-0.04 42.4 36.1----
2024-07-23 05:54 pm E 9.9 12.0----30.05- 42.3 36.0----
2024-07-23 05:48 pm E 8.9 11.1------ 42.6-----
2024-07-23 05:42 pm E 9.9 11.1----30.06- 42.3 35.8----
2024-07-23 05:36 pm E 9.9 12.0----30.06- 42.3 35.6----
2024-07-23 05:30 pm E 7.0 9.9----30.06- 42.6 35.6----
2024-07-23 05:24 pm E 8.0 11.1----30.06- 42.4 35.8----
2024-07-23 05:18 pm E 8.9 11.1----30.06- 42.8 35.8----
2024-07-23 05:12 pm E 8.0 9.9----30.07- 42.8 36.0----
2024-07-23 05:06 pm E 7.0 8.9----30.07- 43.0 35.8----
2024-07-23 05:00 pmESE 8.0 9.9----30.07-0.04 43.0 35.8----
2024-07-23 04:54 pmESE 8.0 8.9----30.07- 43.3 36.0----